Location: ??? ????????
(31.9255°N, 35.3183°E)
Time: 07:27:24
(UTC+00:00)

Daily predictions for brighter satellites

Satellite Brightness Start Highest point End
(mag) Time Altitude Azimuth Time Altitude Azimuth Time Altitude Azimuth
Feng Yun 1-1 Rocket 4.3 14:53:06 10° SSE 14:58:21 55° ENE 15:03:36 10° N
NOSS 2 (A) 3.9 15:04:21 10° NNW 15:06:39 59° ENE 15:09:04 10° SE
OAO 2 Rocket 3.5 15:02:05 10° W 15:07:01 62° N 15:12:03 10° ENE
Sakura Rocket 4.4 15:04:46 10° WSW 15:09:45 51° SSE 15:16:40 10° E
SKYMED 2 4.3 15:06:48 10° NNE 15:10:45 34° E 15:14:40 10° SSE
Cosmos 1862 Rocket 4.4 15:08:03 10° SSW 15:12:16 53° W 15:16:34 10° N
Meteor 1-5 Rocket 4.3 15:07:20 10° N 15:12:47 79° W 15:18:05 10° S
Cosmos 1092 Rocket 4.1 15:07:17 10° S 15:13:31 64° E 15:19:42 10° NNE
Cosmos 1703 Rocket 3.8 15:11:04 10° SSE 15:15:20 48° E 15:19:39 10° NNE
Okean O Rocket 4.1 15:13:15 10° SSW 15:16:54 26° W 15:20:33 10° NW
Centaur D-1A AC-31 1.9 15:14:30 10° WSW 15:17:32 48° S 15:24:19 10° E
Cosmos 1536 2.8 15:16:03 10° N 15:20:02 65° E 15:23:58 10° SSE
Cosmos 1190 Rocket 4.5 15:16:07 10° S 15:20:56 40° E 15:25:45 10° NNE
Cosmos 2242 Rocket 4.0 15:19:19 10° SSW 15:23:50 69° W 15:28:24 10° N
Aureole 1 Rocket 2.6 15:21:33 10° SSW 15:24:31 59° WNW 15:27:29 10° N
STARLINK-43 3.5 15:24:03 10° SSW 15:27:41 57° SE 15:30:21 17° NE
Cosmos 1666 2.7 15:27:37 10° N 15:31:17 53° E 15:34:54 10° SSE
CZ-4 R/B 2.3 15:28:22 10° SE 15:31:38 25° ENE 15:34:51 10° NNE
Okean 1 3.7 15:30:42 10° SSE 15:34:27 41° E 15:38:12 10° NNE
Okean-O 2.5 15:30:25 10° SSE 15:34:48 72° ENE 15:39:13 10° N
Cosmos 2278 Rocket 2.3 15:29:14 10° NNW 15:34:54 84° WSW 15:40:32 10° SSE
BREEZE-M DEB (TANK) 4.5 15:34:37 10° NNW 15:35:19 10° N 15:35:58 10° N
NOAA 12 4.0 15:30:23 10° SSE 15:35:41 79° ENE 15:41:00 10° N
CZ-4C R/B 3.7 15:33:50 10° SE 15:35:58 13° ESE 15:36:05 13° ESE
SMAP 3.9 15:31:28 10° S 15:36:00 55° W 15:40:35 10° NNW
SL-16 R/B 2.2 15:36:52 10° SSW 15:42:32 88° WNW 15:48:15 10° NNE
Shenzhou-11 Module 4.2 15:45:47 10° NNW 15:46:31 12° N 15:46:31 12° N
STARLINK-48 4.4 15:45:40 10° S 15:49:06 31° SE 15:50:02 27° E
Cosmos 614 Rocket 4.0 15:44:21 10° SSW 15:49:27 82° WNW 15:54:33 10° NNE
Cosmos 2237 Rocket 4.3 15:48:55 10° WSW 15:53:27 24° WNW 15:58:00 10° N
OAO 3 Rocket 3.3 15:50:01 10° W 15:54:40 58° N 15:56:43 31° ENE
Cosmos 1428 Rocket 4.4 15:48:44 10° S 15:54:52 85° E 16:01:06 10° N
Cosmos 1908 Rocket 3.8 15:50:32 10° NNW 15:54:53 69° W 15:59:11 10° S
Cosmos 1900 4.2 15:50:17 10° NNW 15:55:11 83° ENE 16:00:03 10° SSE
Meteor 1-19 Rocket 4.3 15:50:26 10° SSE 15:55:48 51° E 16:00:23 14° NNE
USA 116 4.3 15:50:56 10° NNE 15:56:13 74° ESE 16:01:05 10° S
Cosmos 1743 3.0 15:53:04 10° N 15:56:46 43° E 16:00:28 10° SSE
YAOGAN 1 2.8 15:54:14 10° SE 15:58:20 44° ENE 16:02:27 10° N
COSMO-SKYMED 1 3.1 15:54:29 10° N 15:58:45 59° WNW 16:03:00 10° SSW
Envisat 3.3 15:53:43 10° S 15:58:46 71° WSW 16:03:50 10° NNW
ADEOS Rocket 4.3 16:00:48 17° ESE 16:00:48 17° ESE 16:02:55 10° SE
ISS -3.9 15:56:08 10° NW 15:59:28 66° NE 16:00:06 51° E
Meteor 2-4 Rocket 4.3 15:54:48 10° SSE 16:00:06 35° E 16:02:04 28° NE
Lacrosse 5 2.7 15:58:43 10° S 16:03:11 31° ESE 16:03:54 30° ESE
Okean 1-7 3.9 15:59:11 10° SSW 16:03:21 49° W 16:07:35 10° N
YAOGAN 6 2.7 16:02:07 10° S 16:05:36 73° WSW 16:09:09 10° NNW
H-2A R/B 2.4 16:04:39 10° SW 16:05:37 17° S 16:05:37 17° S
Cosmos 1140 Rocket 3.4 16:01:22 10° SSW 16:06:28 89° WNW 16:10:24 18° NNE
Cosmos 1553 Rocket 4.1 16:00:42 10° N 16:06:53 51° E 16:13:05 10° SSE
USA 267 3.3 16:00:38 10° SE 16:07:11 84° SW 16:13:45 10° NW
Cosmos 407 Rocket 4.2 16:04:24 10° SSW 16:09:25 54° WNW 16:14:33 10° N
Cosmos 292 Rocket 3.9 16:05:22 10° NNW 16:10:13 74° WSW 16:15:01 10° S
Delta 2 Rocket 3.5 16:06:44 10° WSW 16:11:42 84° NNW 16:12:47 52° ENE
SWIFT 4.4 16:15:46 10° SW 16:18:34 17° S 16:19:48 15° SSE
Atlas Centaur 2 4.3 16:12:15 10° W 16:19:13 36° SSW 16:26:47 10° SE
Geosat 4.3 16:22:52 45° ESE 16:22:52 45° ESE 16:27:29 10° S
CZ-3B R/B 3.4 16:20:00 10° SSW 16:25:11 30° SSE 16:27:28 26° ESE
CSL-04 Rocket 3.5 16:20:14 10° SSE 16:25:30 86° ENE 16:30:49 10° NNW
Abrixas rocket 3.9 16:27:06 10° WSW 16:28:57 30° W 16:28:57 30° W
Cosmos 1417 Rocket 4.3 16:31:53 10° N 16:38:01 89° ENE 16:44:11 10° S
Cosmos 2297 3.7 16:33:06 10° NNW 16:38:48 82° WSW 16:44:26 10° SSE
Cosmos 921 Rocket 3.7 16:37:18 10° NNW 16:41:29 53° W 16:45:44 10° S
Cosmos 1655 Rocket 4.3 16:39:45 10° SSW 16:46:03 68° W 16:51:59 12° N
OAO 2 Rocket 3.7 16:47:01 10° WNW 16:51:07 57° NW 16:51:07 57° NW
Sakura Rocket 4.3 16:57:49 10° W 17:04:06 70° S 17:04:39 67° SSE
CZ-4 R/B 4.2 17:04:05 10° SW 17:06:36 16° W 17:09:05 10° NW
Cosmos 1943 3.9 17:05:39 10° SSW 17:09:43 48° SW 17:09:43 48° SW
CZ-4C R/B 3.6 17:18:56 10° SW 17:21:19 29° WSW 17:21:19 29° WSW
H-II Stage 2 3.7 17:15:09 10° W 17:28:32 52° SW 17:28:32 52° SW
Lacrosse 5 4.3 17:41:29 10° WSW 17:43:08 19° W 17:43:08 19° W
CZ-3B R/B 4.1 18:13:11 10° WSW 18:16:00 28° WSW 18:16:00 28° WSW
